Flag Weather past 2 weeks in Teresina, Piauí, Brazil

Now
82 °F

Sunny.


Feels Like: 85 °F
Forecast: 76 / 97 °F
Wind: 7 mph from East

Location: Teresina Aeroporto

Current Time: Nov 23, 2014 at 8:21:33 AM

Latest Report: Nov 23, 2014 at 8:00 AM


Visibility: 10 mi

Pressure: 29.86 "Hg

Humidity: 62%

Dew point: 68 °F

Location of TeresinaLocation

Historic Weather in Teresina — Graph

°F

Teresina temperature yesterday

Maximum temperature yesterday: 97 °F (at 3:00 PM)
Minimum temperature yesterday: 77 °F (at 4:00 AM)
Average temperature yesterday: 87 °F

Past Weeks' High & Low Weather Summary

 TemperatureHumidityPressure
High100 °F (Nov 9, 4:00 PM)100% (Nov 16, 7:00 AM)29.95 "Hg (Nov 16, 7:00 AM)
Low39 °F (Nov 17, 3:00 PM)25% (Nov 9, 4:00 PM)29.68 "Hg (Nov 10, 3:00 PM)
Average85 °F64%29.81 "Hg
* Reported Nov 8 7:00 AM — Nov 23 7:00 AM, Teresina, Weather by CustomWeather, © 2014

Note: Actual official high and low records may vary slightly from our data, if they occured in-between our weather recording intervals... More about our weather records

Advertising

Teresina weather history for previous 24 hours

 ConditionsComfort  
Time TempWeatherWind HumidityBarometerVisibility
7:00 AM
Nov 23
79 °FSunny.6 mph74%29.86 "Hg10 mi
6:00 AM75 °FClear.3 mph89%29.83 "Hg10 mi
5:00 AM75 °FClear.No wind89%29.83 "Hg10 mi
4:00 AM77 °FClear.2 mph83%29.80 "Hg10 mi
3:00 AM77 °FClear.5 mph83%29.80 "Hg10 mi
2:00 AM79 °FClear.5 mph74%29.80 "Hg10 mi
1:00 AM81 °FClear.7 mph70%29.83 "Hg10 mi
12:00 AM82 °FClear.9 mph66%29.83 "Hg10 mi
11:00 PM
Nov 22
84 °FClear.7 mph62%29.83 "Hg10 mi
10:00 PM86 °FClear.9 mph55%29.83 "Hg10 mi
9:00 PM86 °FClear.No wind62%29.80 "Hg10 mi
8:00 PM88 °FClear.2 mph55%29.77 "Hg10 mi
7:00 PM93 °FClear.5 mph39%29.74 "Hg10 mi
6:00 PM95 °FPassing clouds.5 mph34%29.74 "HgN/A
5:00 PM97 °FPassing clouds.3 mph32%29.71 "HgN/A
4:00 PM97 °FScattered clouds.9 mph32%29.71 "HgN/A
3:00 PM97 °FScattered clouds.7 mph34%29.74 "HgN/A
2:00 PM95 °FScattered clouds.9 mph36%29.74 "HgN/A
1:00 PM95 °FScattered clouds.9 mph39%29.80 "HgN/A
12:00 PM93 °FScattered clouds.9 mph41%29.83 "HgN/A
11:00 AM91 °FScattered clouds.6 mph44%29.86 "HgN/A
10:00 AM88 °FScattered clouds.10 mph52%29.86 "HgN/A
9:00 AM88 °FPassing clouds.9 mph52%29.86 "HgN/A
8:00 AM86 °FSunny.7 mph59%29.86 "Hg10 mi
Weather by CustomWeather, © 2014

See weather overviewHow to use our weather pages